Location: Newark
(45.5000°N, 11.4167°E)
Time: 05:16:27
(UTC+00:00)

Transit 2A Rocket - Pass Details

Date: 31 August 2019
Orbit: 592 x 911 km, 66.7° (Epoch: 16 September)

Event Time Altitude Azimuth Distance (km) Brightness Sun altitude
Rises 16:39:09 0° 219° (SW) 3,425 9.0 12.3°
Reaches altitude 10° 16:41:44 10° 222° (SW) 2,452 8.3 11.9°
Maximum altitude 16:47:21 68° 305° (NW) 853 5.8 10.9°
Drops below altitude 10° 16:52:31 10° 28° (NNE) 2,254 7.2 10.0°
Sets 16:54:49 0° 32° (NNE) 3,130 7.9 9.6°
